OBJECT E, 43835

Orbit data source: Space-Track

You're viewing an Uncataloged Satellite

Recently launched and/or uncataloged satellites may have evolving metadata. Metadata may include but not limited to: Owner, Maufacturer, Bus, Motor, and Mission.

OBJECT E, 43835 is a satellite in SSO that was launched on Fri, 07 Dec 2018 UTC via a CHANG ZHENG 2D launch vehicle from the Jiuquan Satellite Launch Center, China (JSC). Unknown objects in Earth's orbit typically refer to objects detected orbiting the Earth but have not yet been identified or cataloged. These objects could be anything from previously untracked satellites, spent rocket stages, debris from satellite collisions, or even natural meteoroids temporarily captured by Earth's gravity.

Loading next visibility...
OBJECT E details
Identifier
43835, 2018-102E
Orbit
SSO
Last TLE update7 hours ago
Origin
Flag of TBDChangsha Tianyi (TBD)
ManufacturerGUOX/CTYK
MissionCommercial Communications
Bus & MotorCUBESAT 3U, Unknown motor
Mass8 kg wet, 8 kg dry
Launch date (UTC)
2018-12-07 (6 years ago)
Launch vehicle
CHANG ZHENG 2D
Launch site
Jiuquan Satellite Launch Center, China (JSC)
Object typeUnknown
Shape & HBRBox, 0.3 m
Radar Cross Section0.080 m², Medium (>0.1 m² and < 1m²)

Expand to show TLE details & history

TLE from 7 hours ago
0 OBJECT E
1 43835U 18102E   24361.12290925  .00211275  00000-0  17496-2 0  9998
2 43835  97.4124  83.8995 0004558 196.0886 164.0231 15.69588617334984
Epoch: 2024-12-26T02:56Z
Definitive object data (Epoch: 2024-12-26T02:56:59.359Z)
Latitude-0.00009°
Longitude-55.45465°
Altitude366.185 km
Speed7.688 km/s
True Right ascension05h 35m 35s
True Declination0° 00' 00"
Sunlit
Object was in full shadow at TLE epoch
Visualization TLE readout
Latitude-71.00637°
Longitude102.78557°
Altitude384.446 km
Speed7.679 km/s
Apparent Right ascension19h 59m 56s
Apparent Declination-61° 21' 37"
Sunlit
Object is in daylight
Visualization observer readout
Local Sidereal Time09:29:37
Azimuth154.818° SSE
Elevation-64.552°
Doppler factor1
Orbital elements
Apogee altitude360.044 km
Perigee altitude353.905 km
Semi-major axis6,735.111 km
Eccentricity0.0004558
Inclination97.4124°
RAAN83.8995°
Arg. of periapsis196.0886°
True anomaly164.03747°
Mean anomaly164.0231°
Eccentric anomaly164.03029°
Mean motion3.92668 °/min
BSTAR0.0017496
Orbital period91.68 mins
Loading maneuver chart data...
Loading historical data...
Loading historical data...
Loading historical data...
Loading historical data...
Loading historical data...
Loading historical data...
Loading historical data...

OBJECT E Visibility forecast

Observer location: undefined°, undefined

Span
Click to sort rows by Start time (UTC) header in descending order
Start Az.
Max El. time (UTC)
Max El. Az.
Max El.
End time (UTC)
End Az.
4 mins2024-12-26 18:48:29.575Z0.46° NNE2024-12-26 18:50:29.575Z278.747° WNW40.522°2024-12-26 18:52:29.575Z206.894° SW
|